Погода в Мирном

Россия / Челябинская область     55°19′07″N   61°04′43″E
темп.,
°C
ветер,
м/с
пор.,
м/с
влажн.,
%
обл.,
%
осадки,
мм/ч
давл.,
гПа
погр.,
м
20 июня, вс
вс2023:00+14з2295100 2.7 101354
02:00+16зюз51393100 1.0 1010372
05:00+16зсз7169383 1.8 1010542
08:00+19сз8138559 0.4 1010839
11:00+22сз9165330 0.4 10101982
14:00+22ссз914400 0.0 10112486
17:00+21ссз814390 0.0 10122240
20:00+17ссз714485 0.0 1014553
21 июня, пн
пн2123:00+14ссз9153987 0.0 1017878
02:00+10сз513523 0.0 1018348
05:00+9ссз613580 0.0 1020434
08:00+12ссз712555 0.0 1021988
11:00+16с79455 0.0 10221425
14:00+18с683899 0.0 10221757
17:00+19ссв353631 0.0 10221342
20:00+17юв225499 0.0 102022
22 июня, вт
вт2223:00+15юз3551100 0.0 102194
02:00+15зсз2260100 0.0 102028
05:00+15зсз236593 0.0 101958
08:00+18з2468100 0.0 1018363
11:00+22сз466341 0.1 10181002
14:00+26ссз6105455 0.3 10161931
17:00+24ссз58715 1.6 1016877
20:00+22всв358041 0.4 1016164
23 июня, ср
ср2323:00+19ююз228963 0.6 101625
02:00+16юз22945 1.1 101522
05:00+16с4995100 2.1 1016258
08:00+14всв5695100 0.3 1018454
11:00+13юв4696100 3.8 1018402
14:00+13в4697100 3.8 1019357
17:00+13вюв3596100 5.3 1019315
20:00+13ююв229183 0.1 1020343
24 июня, чт
чт2423:00+11ююв22966 0.1 102025
02:00+10ююв229673 0.0 102033
05:00+11ю3493100 0.0 1019106
08:00+13ю348599 0.0 1019230
11:00+15ю3481100 0.0 1018439
14:00+20ююз337263 0.0 1017887
17:00+22вюв216465 0.0 1015966
20:00+19вюв358098 0.0 1015119